GFSSW_prec_precacc_276.txt.gz
Total_Precipitation_Accumulation
0.12 0.09 0.08 0.08 0.08 0.07 0.06 0.04 0.03 0.03 0.02 0.01 0.01 0.00 0.00 0.00 0.00 0.00 0.00 0.00 0.00 0.00 0.00 0.01 0.00 0.00 0.00 0.08 0.48 2.24 4.90 5.52 5.81 4.60 4.03 2.22 2.37 2.77 1.41 0.74 0.45 1.13 0.94 0.12 0.06
0.12 0.10 0.09 0.09 0.09 0.07 0.06 0.05 0.03 0.04 0.03 0.02 0.02 0.01 0.00 0.00 0.00 0.00 0.00 0.00 0.00 0.00 0.00 0.00 0.00 0.00 0.00 0.04 0.47 1.96 5.15 3.37 1.63 1.20 2.23 2.20 3.46 3.61 2.31 1.25 0.56 0.73 0.63 0.05 0.04
0.12 0.10 0.10 0.09 0.09 0.07 0.06 0.05 0.04 0.04 0.03 0.03 0.02 0.00 0.00 0.00 0.00 0.00 0.00 0.00 0.00 0.00 0.00 0.00 0.00 0.00 0.01 0.03 0.29 1.42 3.73 1.86 1.29 1.06 1.47 2.34 3.17 2.42 2.14 1.79 0.55 0.80 0.78 0.04 0.05
0.12 0.11 0.11 0.10 0.08 0.07 0.05 0.05 0.04 0.04 0.03 0.03 0.01 0.00 0.00 0.00 0.00 0.00 0.00 0.00 0.00 0.00 0.00 0.00 0.00 0.00 0.10 0.04 0.16 1.78 1.44 1.42 1.41 0.75 1.12 2.39 3.21 3.42 2.35 2.20 0.78 0.38 0.08 0.00 0.01
0.10 0.10 0.10 0.10 0.08 0.07 0.05 0.03 0.03 0.02 0.02 0.01 0.00 0.00 0.00 0.00 0.00 0.00 0.00 0.00 0.00 0.00 0.00 0.00 0.00 0.00 0.03 0.06 0.18 1.54 1.52 1.76 1.50 0.79 1.03 1.66 2.23 2.60 1.99 1.79 0.69 0.26 0.01 0.00 0.02
0.11 0.11 0.11 0.10 0.08 0.05 0.04 0.04 0.03 0.01 0.01 0.00 0.01 0.01 0.00 0.00 0.00 0.00 0.00 0.00 0.00 0.00 0.00 0.00 0.00 0.00 0.02 0.02 0.28 0.70 1.10 1.13 1.53 1.12 1.12 1.55 2.31 1.87 1.33 0.85 0.59 0.10 0.00 0.00 0.05
0.12 0.12 0.11 0.09 0.07 0.04 0.04 0.03 0.02 0.01 0.01 0.01 0.03 0.00 0.00 0.00 0.00 0.00 0.00 0.00 0.00 0.00 0.00 0.00 0.00 0.00 0.01 0.03 0.10 0.34 1.17 1.58 1.56 1.29 1.15 1.29 2.70 2.49 2.00 0.99 0.47 0.12 0.00 0.00 0.03
0.11 0.12 0.10 0.09 0.06 0.04 0.02 0.01 0.01 0.01 0.02 0.01 0.03 0.00 0.00 0.00 0.00 0.00 0.00 0.00 0.00 0.00 0.00 0.00 0.00 0.00 0.01 0.06 0.23 1.06 1.47 3.22 2.88 1.84 1.32 1.88 2.77 2.45 2.75 2.09 0.52 0.13 0.03 0.05 0.01
0.11 0.10 0.08 0.07 0.07 0.04 0.01 0.00 0.00 0.00 0.00 0.00 0.00 0.00 0.00 0.00 0.00 0.00 0.00 0.00 0.00 0.00 0.00 0.00 0.00 0.00 0.00 0.01 0.29 0.89 1.24 2.11 3.26 2.81 1.99 2.03 2.79 1.74 1.86 1.37 0.74 0.12 0.05 0.11 0.11
0.11 0.10 0.09 0.09 0.07 0.05 0.00 0.00 0.00 0.00 0.00 0.00 0.00 0.00 0.00 0.00 0.00 0.00 0.00 0.00 0.00 0.00 0.00 0.00 0.00 0.00 0.01 0.00 0.24 1.02 0.82 1.30 2.33 3.55 3.26 2.42 2.24 1.20 1.33 1.18 0.79 0.34 0.10 0.07 0.08
0.12 0.11 0.11 0.10 0.08 0.07 0.02 0.01 0.00 0.00 0.00 0.00 0.00 0.00 0.00 0.00 0.00 0.00 0.00 0.00 0.00 0.00 0.00 0.00 0.00 0.00 0.01 0.01 0.03 0.19 0.42 1.21 1.90 2.20 3.36 3.13 2.60 1.55 1.26 0.98 1.29 0.87 0.21 0.07 0.11
0.12 0.12 0.12 0.09 0.06 0.05 0.01 0.00 0.00 0.00 0.00 0.00 0.00 0.00 0.00 0.00 0.00 0.00 0.00 0.00 0.00 0.00 0.00 0.00 0.00 0.00 0.00 0.00 0.02 0.03 0.37 0.94 1.23 1.44 2.32 3.70 2.83 2.37 1.55 0.97 0.93 1.21 0.68 0.25 0.20
0.12 0.12 0.10 0.06 0.03 0.01 0.00 0.00 0.00 0.00 0.00 0.00 0.00 0.00 0.00 0.00 0.00 0.00 0.00 0.00 0.00 0.00 0.00 0.00 0.00 0.00 0.00 0.02 0.00 0.06 0.30 0.66 0.89 0.63 1.25 2.98 4.05 3.24 2.19 1.53 1.34 0.75 0.56 0.44 0.19
0.12 0.13 0.11 0.03 0.01 0.00 0.00 0.00 0.00 0.00 0.00 0.00 0.00 0.00 0.00 0.00 0.00 0.00 0.00 0.00 0.00 0.00 0.00 0.00 0.00 0.00 0.00 0.00 0.01 0.13 0.20 0.62 1.37 0.80 0.86 0.65 2.59 3.89 2.40 2.05 1.74 0.76 0.50 0.32 0.30
0.13 0.14 0.14 0.05 0.00 0.00 0.00 0.00 0.00 0.00 0.03 0.00 0.00 0.00 0.00 0.00 0.00 0.00 0.00 0.00 0.00 0.00 0.00 0.00 0.00 0.01 0.00 0.02 0.04 0.06 0.18 0.56 0.67 0.63 0.28 0.22 0.78 1.78 2.08 1.98 2.07 0.88 0.42 0.49 0.72
0.11 0.14 0.13 0.01 0.00 0.00 0.00 0.00 0.00 0.01 0.01 0.00 0.00 0.00 0.00 0.00 0.00 0.00 0.00 0.00 0.00 0.00 0.00 0.00 0.00 0.00 0.00 0.03 0.04 0.06 0.08 0.32 0.59 0.46 0.35 0.11 0.29 1.00 1.43 1.01 1.39 0.88 0.43 0.29 0.47
0.06 0.10 0.10 0.00 0.00 0.00 0.00 0.00 0.01 0.02 0.00 0.00 0.00 0.00 0.00 0.00 0.00 0.00 0.00 0.00 0.00 0.00 0.00 0.00 0.00 0.00 0.00 0.01 0.02 0.03 0.06 0.34 0.42 0.36 0.41 0.18 0.26 0.54 0.89 0.62 0.60 1.13 0.75 0.59 0.55
0.04 0.05 0.01 0.00 0.00 0.00 0.00 0.00 0.11 0.10 0.01 0.00 0.00 0.00 0.00 0.00 0.00 0.00 0.00 0.00 0.00 0.00 0.00 0.00 0.00 0.00 0.00 0.00 0.01 0.01 0.01 0.13 0.31 0.38 0.54 0.34 0.69 0.36 0.25 0.29 0.44 0.60 0.80 1.31 1.02
0.01 0.00 0.00 0.00 0.00 0.00 0.00 0.07 0.18 0.09 0.01 0.00 0.00 0.00 0.00 0.00 0.00 0.00 0.00 0.00 0.00 0.01 0.00 0.00 0.00 0.00 0.00 0.00 0.00 0.00 0.01 0.04 0.13 0.18 0.36 0.38 0.71 0.46 0.19 0.22 0.21 0.50 0.92 1.18 1.14
0.00 0.00 0.00 0.00 0.00 0.00 0.01 0.03 0.01 0.02 0.02 0.00 0.00 0.00 0.00 0.00 0.00 0.00 0.01 0.01 0.00 0.01 0.00 0.00 0.00 0.00 0.00 0.00 0.01 0.00 0.01 0.03 0.07 0.23 0.24 0.57 1.07 1.17 0.53 1.13 0.58 0.41 0.61 0.67 1.16
0.00 0.00 0.00 0.00 0.00 0.01 0.22 0.02 0.00 0.00 0.00 0.00 0.00 0.00 0.00 0.01 0.01 0.03 0.05 0.02 0.01 0.00 0.01 0.01 0.00 0.01 0.00 0.02 0.03 0.01 0.00 0.01 0.01 0.11 0.31 0.58 0.94 1.08 0.88 1.48 1.34 0.79 0.48 0.53 0.59
0.00 0.00 0.00 0.00 0.00 0.01 0.08 0.00 0.00 0.00 0.00 0.00 0.00 0.00 0.01 0.02 0.03 0.03 0.05 0.06 0.01 0.00 0.03 0.02 0.01 0.01 0.01 0.03 0.09 0.12 0.07 0.06 0.02 0.16 0.21 0.30 0.71 0.81 0.93 0.98 1.20 1.84 1.10 0.88 0.70
0.00 0.01 0.01 0.00 0.02 0.01 0.00 0.00 0.00 0.01 0.01 0.03 0.03 0.02 0.01 0.02 0.08 0.07 0.10 0.09 0.07 0.04 0.06 0.09 0.06 0.06 0.09 0.08 0.03 0.00 0.02 0.17 0.14 0.14 0.07 0.12 0.24 0.47 0.65 1.20 1.47 2.07 1.93 1.37 1.78
0.03 0.06 0.03 0.00 0.00 0.00 0.02 0.01 0.00 0.01 0.03 0.03 0.07 0.02 0.00 0.01 0.03 0.14 0.10 0.07 0.06 0.06 0.11 0.21 0.06 0.02 0.19 0.23 0.09 0.02 0.02 0.01 0.06 0.09 0.03 0.06 0.15 0.48 0.75 1.49 0.80 1.40 2.44 2.00 1.97
0.07 0.16 0.36 0.03 0.00 0.02 0.05 0.07 0.06 0.06 0.05 0.07 0.30 0.25 0.11 0.04 0.03 0.13 0.08 0.03 0.03 0.08 0.15 0.12 0.02 0.00 0.03 0.01 0.01 0.04 0.04 0.03 0.01 0.01 0.06 0.37 0.15 0.71 0.47 0.39 0.77 0.62 0.58 0.65 0.87
0.16 0.31 0.52 0.07 0.04 0.03 0.03 0.09 0.14 0.07 0.03 0.07 0.24 0.24 0.21 0.24 0.13 0.13 0.08 0.08 0.16 0.18 0.21 0.11 0.04 0.00 0.00 0.01 0.00 0.01 0.01 0.01 0.05 0.13 0.07 0.26 0.50 0.32 0.51 0.56 0.49 0.91 1.35 1.41 1.10
0.25 0.35 0.47 0.21 0.13 0.33 0.12 0.16 0.15 0.43 0.29 0.27 0.33 0.26 0.16 0.20 0.09 0.09 0.08 0.06 0.08 0.15 0.26 0.17 0.16 0.15 0.06 0.06 0.02 0.06 0.01 0.01 0.01 0.04 0.05 0.13 0.64 0.61 0.63 0.70 0.84 0.65 1.02 1.80 1.67

GFSSW_prec_precacc_279.txt.gz
Total_Precipitation_Accumulation
0.12 0.09 0.08 0.08 0.08 0.07 0.06 0.04 0.03 0.03 0.02 0.01 0.01 0.00 0.00 0.00 0.00 0.00 0.00 0.00 0.00 0.00 0.00 0.01 0.00 0.00 0.00 0.08 0.48 2.24 4.96 5.52 5.81 4.67 4.08 2.22 2.37 2.77 1.41 0.74 0.45 1.13 0.94 0.12 0.06
0.12 0.10 0.09 0.09 0.09 0.07 0.06 0.05 0.03 0.04 0.03 0.02 0.02 0.01 0.00 0.00 0.00 0.00 0.00 0.00 0.00 0.00 0.00 0.00 0.00 0.00 0.00 0.04 0.47 1.96 5.15 3.37 1.63 1.20 2.24 2.20 3.46 3.61 2.32 1.25 0.57 0.73 0.63 0.05 0.04
0.12 0.10 0.10 0.09 0.09 0.07 0.06 0.05 0.04 0.04 0.03 0.03 0.02 0.00 0.00 0.00 0.00 0.00 0.00 0.00 0.00 0.00 0.00 0.00 0.00 0.00 0.01 0.03 0.29 1.42 3.73 1.86 1.29 1.06 1.47 2.34 3.17 2.42 2.15 1.79 0.56 0.80 0.78 0.04 0.05
0.12 0.11 0.11 0.10 0.08 0.07 0.05 0.05 0.04 0.04 0.03 0.03 0.01 0.00 0.00 0.00 0.00 0.00 0.00 0.00 0.00 0.00 0.00 0.00 0.00 0.00 0.10 0.05 0.16 1.78 1.44 1.42 1.41 0.75 1.12 2.39 3.21 3.42 2.35 2.20 0.78 0.38 0.08 0.00 0.01
0.10 0.10 0.10 0.10 0.08 0.07 0.05 0.03 0.03 0.02 0.02 0.01 0.00 0.00 0.00 0.00 0.00 0.00 0.00 0.00 0.00 0.00 0.00 0.00 0.00 0.00 0.03 0.06 0.18 1.55 1.52 1.76 1.50 0.79 1.03 1.66 2.23 2.60 1.99 1.79 0.69 0.26 0.01 0.00 0.02
0.11 0.11 0.11 0.10 0.08 0.05 0.04 0.04 0.03 0.01 0.01 0.00 0.01 0.01 0.00 0.00 0.00 0.00 0.00 0.00 0.00 0.00 0.00 0.00 0.00 0.00 0.02 0.02 0.28 0.71 1.10 1.13 1.53 1.12 1.12 1.55 2.31 1.87 1.33 0.85 0.59 0.10 0.00 0.00 0.05
0.12 0.12 0.11 0.09 0.07 0.04 0.04 0.03 0.02 0.01 0.01 0.01 0.03 0.00 0.00 0.00 0.00 0.00 0.00 0.00 0.00 0.00 0.00 0.00 0.00 0.00 0.01 0.04 0.10 0.34 1.17 1.58 1.56 1.29 1.15 1.29 2.70 2.49 2.00 0.99 0.47 0.12 0.00 0.00 0.03
0.11 0.12 0.10 0.09 0.06 0.04 0.02 0.01 0.01 0.01 0.02 0.01 0.03 0.00 0.00 0.00 0.00 0.00 0.00 0.00 0.00 0.00 0.00 0.00 0.00 0.00 0.01 0.06 0.23 1.06 1.47 3.22 2.88 1.84 1.32 1.88 2.78 2.45 2.75 2.09 0.52 0.13 0.03 0.05 0.01
0.11 0.10 0.08 0.07 0.07 0.04 0.01 0.00 0.00 0.00 0.00 0.00 0.00 0.00 0.00 0.00 0.00 0.00 0.00 0.00 0.00 0.00 0.00 0.00 0.00 0.00 0.00 0.01 0.31 0.89 1.24 2.11 3.26 2.81 1.99 2.03 2.79 1.74 1.86 1.37 0.74 0.12 0.05 0.11 0.11
0.11 0.10 0.09 0.09 0.07 0.05 0.00 0.00 0.00 0.00 0.00 0.00 0.00 0.00 0.00 0.00 0.00 0.00 0.00 0.00 0.00 0.00 0.00 0.00 0.00 0.00 0.01 0.00 0.25 1.02 0.82 1.30 2.33 3.55 3.26 2.42 2.24 1.20 1.33 1.18 0.79 0.34 0.10 0.07 0.08
0.12 0.11 0.11 0.10 0.08 0.07 0.02 0.01 0.00 0.00 0.00 0.00 0.00 0.00 0.00 0.00 0.00 0.00 0.00 0.00 0.00 0.00 0.00 0.00 0.00 0.00 0.01 0.01 0.03 0.19 0.42 1.22 1.90 2.20 3.36 3.13 2.60 1.55 1.26 0.98 1.29 0.87 0.21 0.07 0.11
0.12 0.12 0.12 0.09 0.06 0.05 0.01 0.00 0.00 0.00 0.00 0.00 0.00 0.00 0.00 0.00 0.00 0.00 0.00 0.00 0.00 0.00 0.00 0.00 0.00 0.00 0.00 0.00 0.02 0.03 0.37 0.95 1.23 1.44 2.32 3.70 2.83 2.37 1.55 0.97 0.93 1.21 0.68 0.25 0.20
0.12 0.12 0.10 0.06 0.03 0.01 0.00 0.00 0.00 0.00 0.00 0.00 0.00 0.00 0.00 0.00 0.00 0.00 0.00 0.00 0.00 0.00 0.00 0.00 0.00 0.00 0.00 0.02 0.00 0.06 0.30 0.66 0.90 0.63 1.26 2.99 4.09 3.24 2.19 1.53 1.34 0.75 0.56 0.44 0.19
0.12 0.13 0.11 0.03 0.01 0.00 0.00 0.00 0.00 0.00 0.00 0.00 0.00 0.00 0.00 0.00 0.00 0.00 0.00 0.00 0.00 0.00 0.00 0.00 0.00 0.00 0.00 0.00 0.01 0.13 0.20 0.62 1.37 0.80 0.93 0.66 2.61 3.90 2.40 2.05 1.74 0.76 0.50 0.32 0.30
0.13 0.14 0.14 0.05 0.00 0.00 0.00 0.00 0.00 0.00 0.03 0.00 0.00 0.00 0.00 0.00 0.00 0.00 0.00 0.00 0.00 0.00 0.00 0.00 0.00 0.01 0.00 0.02 0.04 0.06 0.18 0.56 0.67 0.63 0.28 0.25 0.78 1.83 2.08 1.98 2.07 0.88 0.42 0.49 0.72
0.11 0.14 0.13 0.01 0.00 0.00 0.00 0.00 0.00 0.01 0.01 0.00 0.00 0.00 0.00 0.00 0.00 0.00 0.00 0.00 0.00 0.00 0.00 0.00 0.00 0.00 0.00 0.03 0.04 0.06 0.08 0.32 0.59 0.46 0.35 0.15 0.29 1.03 1.49 1.01 1.39 0.88 0.43 0.29 0.47
0.06 0.10 0.10 0.00 0.00 0.00 0.00 0.00 0.01 0.02 0.00 0.00 0.00 0.00 0.00 0.00 0.00 0.00 0.00 0.00 0.00 0.00 0.00 0.00 0.00 0.00 0.00 0.01 0.02 0.03 0.06 0.34 0.42 0.36 0.44 0.21 0.26 0.54 0.89 0.62 0.60 1.13 0.75 0.59 0.55
0.04 0.05 0.01 0.00 0.00 0.00 0.00 0.00 0.11 0.10 0.01 0.00 0.00 0.00 0.00 0.00 0.00 0.00 0.00 0.00 0.00 0.00 0.00 0.00 0.00 0.00 0.00 0.00 0.01 0.01 0.01 0.13 0.31 0.39 0.55 0.34 0.69 0.37 0.25 0.29 0.44 0.60 0.80 1.31 1.02
0.01 0.00 0.00 0.00 0.00 0.00 0.00 0.07 0.18 0.09 0.01 0.00 0.00 0.00 0.00 0.00 0.00 0.00 0.00 0.00 0.00 0.01 0.00 0.00 0.00 0.00 0.00 0.00 0.00 0.00 0.01 0.04 0.13 0.18 0.36 0.38 0.71 0.46 0.19 0.22 0.21 0.50 0.92 1.18 1.14
0.00 0.00 0.00 0.00 0.00 0.00 0.01 0.03 0.01 0.02 0.02 0.00 0.00 0.00 0.00 0.00 0.00 0.00 0.01 0.01 0.00 0.01 0.00 0.00 0.00 0.00 0.00 0.00 0.01 0.00 0.01 0.03 0.07 0.23 0.24 0.57 1.07 1.17 0.53 1.13 0.58 0.41 0.61 0.67 1.16
0.00 0.00 0.00 0.00 0.00 0.01 0.22 0.02 0.00 0.00 0.00 0.00 0.00 0.00 0.00 0.01 0.01 0.03 0.05 0.02 0.01 0.00 0.01 0.01 0.00 0.01 0.00 0.02 0.03 0.01 0.00 0.01 0.01 0.11 0.31 0.58 0.94 1.09 0.88 1.48 1.34 0.79 0.48 0.53 0.59
0.00 0.00 0.00 0.00 0.00 0.01 0.08 0.00 0.00 0.00 0.00 0.00 0.00 0.00 0.01 0.02 0.03 0.03 0.05 0.06 0.01 0.00 0.03 0.02 0.01 0.01 0.01 0.03 0.09 0.12 0.07 0.06 0.02 0.16 0.21 0.30 0.71 0.81 0.93 0.98 1.20 1.84 1.10 0.88 0.70
0.00 0.01 0.01 0.00 0.02 0.01 0.00 0.00 0.00 0.01 0.01 0.03 0.03 0.02 0.01 0.02 0.08 0.07 0.10 0.09 0.07 0.04 0.06 0.09 0.06 0.06 0.09 0.08 0.03 0.00 0.02 0.17 0.14 0.14 0.07 0.12 0.24 0.47 0.65 1.20 1.47 2.07 1.93 1.37 1.78
0.03 0.06 0.03 0.00 0.00 0.00 0.02 0.01 0.00 0.01 0.03 0.03 0.07 0.02 0.00 0.01 0.03 0.14 0.10 0.07 0.06 0.06 0.11 0.21 0.06 0.02 0.19 0.23 0.09 0.02 0.02 0.01 0.06 0.09 0.03 0.06 0.15 0.48 0.75 1.49 0.80 1.40 2.44 2.00 1.97
0.07 0.16 0.36 0.03 0.00 0.02 0.05 0.07 0.06 0.06 0.05 0.07 0.30 0.25 0.11 0.04 0.03 0.13 0.08 0.03 0.03 0.08 0.15 0.12 0.02 0.00 0.03 0.01 0.01 0.04 0.04 0.03 0.01 0.01 0.06 0.37 0.15 0.71 0.47 0.39 0.77 0.62 0.58 0.65 0.87
0.16 0.31 0.52 0.07 0.04 0.03 0.03 0.09 0.14 0.07 0.03 0.07 0.24 0.24 0.21 0.24 0.13 0.13 0.08 0.08 0.16 0.18 0.21 0.11 0.04 0.00 0.00 0.01 0.00 0.01 0.01 0.01 0.05 0.13 0.07 0.26 0.50 0.32 0.51 0.56 0.49 0.91 1.35 1.41 1.10
0.25 0.35 0.47 0.21 0.13 0.33 0.12 0.16 0.15 0.43 0.29 0.27 0.33 0.26 0.16 0.20 0.09 0.09 0.08 0.06 0.08 0.15 0.26 0.17 0.16 0.15 0.06 0.06 0.02 0.06 0.01 0.01 0.01 0.04 0.05 0.13 0.64 0.61 0.63 0.70 0.84 0.65 1.02 1.80 1.67

GFSSW_prec_precacc_285.txt.gz
Total_Precipitation_Accumulation
0.12 0.09 0.08 0.08 0.08 0.07 0.06 0.04 0.03 0.03 0.02 0.01 0.01 0.00 0.00 0.00 0.00 0.00 0.00 0.00 0.00 0.00 0.00 0.01 0.00 0.00 0.00 0.09 0.49 2.28 5.12 5.57 5.84 4.71 4.10 2.22 2.38 2.77 1.41 0.74 0.45 1.13 0.94 0.12 0.06
0.12 0.10 0.09 0.09 0.09 0.07 0.06 0.05 0.03 0.04 0.03 0.02 0.02 0.01 0.00 0.00 0.00 0.00 0.00 0.00 0.00 0.00 0.00 0.00 0.00 0.00 0.00 0.04 0.47 2.04 5.20 3.38 1.63 1.21 2.24 2.21 3.46 3.61 2.32 1.26 0.57 0.73 0.63 0.05 0.04
0.13 0.10 0.10 0.09 0.09 0.07 0.06 0.05 0.04 0.04 0.03 0.03 0.02 0.00 0.00 0.00 0.00 0.00 0.00 0.00 0.00 0.00 0.00 0.00 0.00 0.00 0.01 0.03 0.30 1.43 3.73 1.86 1.30 1.06 1.47 2.34 3.17 2.43 2.21 1.79 0.59 0.81 0.78 0.04 0.05
0.12 0.11 0.11 0.10 0.08 0.07 0.05 0.05 0.04 0.04 0.03 0.03 0.01 0.00 0.00 0.00 0.00 0.00 0.00 0.00 0.00 0.00 0.00 0.00 0.00 0.00 0.10 0.06 0.17 1.82 1.48 1.42 1.41 0.76 1.12 2.39 3.21 3.43 2.36 2.21 0.78 0.38 0.08 0.00 0.01
0.10 0.10 0.10 0.10 0.08 0.07 0.05 0.03 0.03 0.02 0.02 0.01 0.00 0.00 0.00 0.00 0.00 0.00 0.00 0.00 0.00 0.00 0.00 0.00 0.00 0.00 0.03 0.06 0.20 1.59 1.53 1.76 1.50 0.79 1.03 1.66 2.23 2.60 1.99 1.79 0.69 0.26 0.01 0.00 0.02
0.11 0.11 0.11 0.10 0.08 0.05 0.04 0.04 0.03 0.01 0.01 0.00 0.01 0.01 0.00 0.00 0.00 0.00 0.00 0.00 0.00 0.00 0.00 0.00 0.00 0.00 0.02 0.02 0.29 0.72 1.11 1.14 1.53 1.12 1.13 1.56 2.31 1.87 1.33 0.85 0.59 0.10 0.00 0.00 0.05
0.12 0.12 0.11 0.09 0.07 0.04 0.04 0.03 0.02 0.01 0.01 0.01 0.03 0.00 0.00 0.00 0.00 0.00 0.00 0.00 0.00 0.00 0.00 0.00 0.00 0.00 0.01 0.04 0.10 0.34 1.19 1.64 1.56 1.29 1.16 1.30 2.71 2.49 2.00 0.99 0.47 0.12 0.00 0.00 0.03
0.11 0.12 0.10 0.09 0.06 0.04 0.02 0.01 0.01 0.01 0.02 0.01 0.03 0.00 0.00 0.00 0.00 0.00 0.00 0.00 0.00 0.00 0.00 0.00 0.00 0.00 0.01 0.06 0.24 1.09 1.49 3.27 2.88 1.84 1.32 1.90 2.86 2.45 2.75 2.09 0.52 0.13 0.03 0.05 0.01
0.11 0.10 0.08 0.08 0.07 0.04 0.01 0.00 0.00 0.00 0.00 0.00 0.00 0.00 0.00 0.00 0.00 0.00 0.00 0.00 0.00 0.00 0.00 0.00 0.00 0.00 0.00 0.01 0.40 0.92 1.25 2.13 3.29 2.82 1.99 2.04 3.12 1.75 1.87 1.37 0.74 0.12 0.05 0.11 0.11
0.11 0.10 0.09 0.09 0.07 0.05 0.00 0.00 0.00 0.00 0.00 0.00 0.00 0.00 0.00 0.00 0.00 0.00 0.00 0.00 0.00 0.00 0.00 0.00 0.00 0.00 0.01 0.01 0.25 1.03 0.83 1.33 2.36 3.58 3.26 2.43 2.42 1.29 1.34 1.20 0.80 0.34 0.10 0.07 0.08
0.12 0.11 0.11 0.10 0.08 0.07 0.02 0.01 0.00 0.00 0.00 0.00 0.00 0.00 0.00 0.00 0.00 0.00 0.00 0.00 0.00 0.00 0.00 0.00 0.00 0.00 0.01 0.01 0.03 0.19 0.43 1.23 1.91 2.20 3.36 3.16 2.66 1.70 1.32 1.04 1.33 0.88 0.21 0.07 0.11
0.12 0.12 0.12 0.09 0.06 0.05 0.01 0.00 0.00 0.00 0.00 0.00 0.00 0.00 0.00 0.00 0.00 0.00 0.00 0.00 0.00 0.00 0.00 0.00 0.00 0.00 0.00 0.00 0.02 0.03 0.37 0.96 1.26 1.45 2.33 3.71 2.92 2.60 1.81 1.08 0.99 1.25 0.69 0.25 0.20
0.12 0.12 0.10 0.06 0.03 0.01 0.00 0.00 0.00 0.00 0.00 0.00 0.00 0.00 0.00 0.00 0.00 0.00 0.00 0.00 0.00 0.00 0.00 0.00 0.00 0.00 0.00 0.02 0.00 0.06 0.30 0.68 0.91 0.64 1.27 3.01 4.13 3.31 2.33 1.66 1.38 0.78 0.58 0.44 0.19
0.12 0.13 0.11 0.03 0.01 0.00 0.00 0.00 0.00 0.00 0.00 0.00 0.00 0.00 0.00 0.00 0.00 0.00 0.00 0.00 0.00 0.00 0.00 0.00 0.00 0.00 0.00 0.00 0.01 0.13 0.20 0.62 1.37 0.81 0.97 0.70 2.81 4.25 2.50 2.11 1.79 0.78 0.54 0.34 0.31
0.13 0.14 0.14 0.05 0.00 0.00 0.00 0.00 0.00 0.00 0.03 0.00 0.00 0.00 0.00 0.00 0.00 0.00 0.00 0.00 0.00 0.00 0.00 0.00 0.00 0.01 0.00 0.02 0.04 0.06 0.18 0.56 0.67 0.63 0.29 0.37 0.90 1.93 2.18 2.12 2.10 0.88 0.43 0.50 0.73
0.11 0.14 0.13 0.01 0.00 0.00 0.00 0.00 0.00 0.01 0.01 0.00 0.00 0.00 0.00 0.00 0.00 0.00 0.00 0.00 0.00 0.00 0.00 0.00 0.00 0.00 0.00 0.03 0.04 0.06 0.08 0.32 0.59 0.46 0.46 0.27 0.31 1.05 1.68 1.07 1.43 0.90 0.44 0.31 0.48
0.06 0.10 0.10 0.00 0.00 0.00 0.00 0.00 0.01 0.02 0.00 0.00 0.00 0.00 0.00 0.00 0.00 0.00 0.00 0.00 0.00 0.00 0.00 0.00 0.00 0.00 0.00 0.01 0.02 0.03 0.06 0.34 0.42 0.46 0.74 0.29 0.26 0.56 0.90 0.63 0.64 1.18 0.83 0.64 0.56
0.04 0.05 0.01 0.00 0.00 0.00 0.00 0.00 0.11 0.10 0.01 0.00 0.00 0.00 0.00 0.00 0.00 0.00 0.00 0.00 0.00 0.00 0.00 0.00 0.00 0.00 0.00 0.00 0.01 0.01 0.01 0.13 0.31 0.40 0.60 0.36 0.73 0.42 0.25 0.29 0.49 0.63 0.82 1.33 1.04
0.01 0.00 0.00 0.00 0.00 0.00 0.00 0.07 0.18 0.09 0.01 0.00 0.00 0.00 0.00 0.00 0.00 0.00 0.00 0.00 0.00 0.01 0.00 0.00 0.00 0.00 0.00 0.00 0.00 0.00 0.01 0.04 0.13 0.18 0.37 0.43 0.76 0.47 0.21 0.26 0.26 0.51 0.92 1.18 1.14
0.00 0.00 0.00 0.00 0.00 0.00 0.01 0.03 0.01 0.02 0.02 0.00 0.00 0.00 0.00 0.00 0.00 0.00 0.01 0.01 0.00 0.01 0.00 0.00 0.00 0.00 0.00 0.00 0.01 0.00 0.01 0.03 0.07 0.23 0.24 0.58 1.10 1.22 0.55 1.14 0.66 0.43 0.61 0.67 1.16
0.00 0.00 0.00 0.00 0.00 0.01 0.22 0.02 0.00 0.00 0.00 0.00 0.00 0.00 0.00 0.01 0.01 0.03 0.05 0.02 0.01 0.00 0.01 0.01 0.00 0.01 0.00 0.02 0.03 0.01 0.00 0.01 0.01 0.11 0.32 0.58 0.94 1.09 0.90 1.48 1.35 0.80 0.48 0.53 0.59
0.00 0.00 0.00 0.00 0.00 0.01 0.08 0.00 0.00 0.00 0.00 0.00 0.00 0.00 0.01 0.02 0.03 0.03 0.05 0.06 0.01 0.00 0.03 0.02 0.01 0.01 0.01 0.03 0.09 0.12 0.07 0.06 0.02 0.16 0.21 0.30 0.71 0.81 0.93 0.98 1.22 1.86 1.10 0.88 0.70
0.00 0.01 0.01 0.00 0.02 0.01 0.00 0.00 0.00 0.01 0.01 0.03 0.03 0.02 0.01 0.02 0.08 0.07 0.10 0.09 0.07 0.04 0.06 0.09 0.06 0.06 0.09 0.08 0.03 0.00 0.02 0.17 0.14 0.14 0.07 0.13 0.27 0.47 0.66 1.21 1.47 2.08 1.93 1.37 1.78
0.03 0.06 0.03 0.00 0.00 0.00 0.02 0.01 0.00 0.01 0.03 0.03 0.07 0.02 0.00 0.01 0.03 0.14 0.10 0.07 0.06 0.06 0.11 0.21 0.06 0.02 0.19 0.23 0.09 0.02 0.02 0.01 0.06 0.09 0.03 0.06 0.15 0.50 0.76 1.50 0.81 1.40 2.44 2.00 1.97
0.07 0.16 0.36 0.03 0.00 0.02 0.05 0.07 0.06 0.06 0.05 0.07 0.30 0.25 0.11 0.04 0.03 0.13 0.08 0.03 0.03 0.08 0.15 0.12 0.02 0.00 0.03 0.01 0.01 0.04 0.04 0.03 0.01 0.01 0.06 0.37 0.15 0.71 0.48 0.40 0.77 0.62 0.58 0.65 0.87
0.16 0.31 0.52 0.10 0.06 0.03 0.03 0.09 0.14 0.07 0.03 0.07 0.24 0.24 0.21 0.24 0.13 0.13 0.08 0.08 0.16 0.18 0.21 0.11 0.04 0.00 0.00 0.01 0.00 0.01 0.01 0.01 0.05 0.13 0.07 0.26 0.50 0.32 0.51 0.56 0.49 0.91 1.35 1.41 1.10
0.25 0.35 0.47 0.21 0.15 0.35 0.14 0.16 0.15 0.43 0.29 0.27 0.33 0.26 0.17 0.20 0.09 0.09 0.08 0.06 0.08 0.20 0.27 0.17 0.16 0.15 0.06 0.06 0.02 0.06 0.01 0.01 0.01 0.04 0.05 0.13 0.64 0.61 0.63 0.70 0.84 0.65 1.02 1.80 1.67

GFSSW_prec_precacc_291.txt.gz
Total_Precipitation_Accumulation
0.13 0.10 0.08 0.09 0.09 0.08 0.06 0.04 0.03 0.03 0.02 0.01 0.01 0.00 0.00 0.00 0.00 0.00 0.00 0.00 0.00 0.00 0.00 0.01 0.00 0.00 0.01 0.15 0.51 2.31 5.14 5.59 5.84 4.72 4.10 2.22 2.39 2.77 1.42 0.74 0.45 1.13 0.94 0.12 0.06
0.12 0.11 0.09 0.09 0.09 0.08 0.06 0.05 0.03 0.04 0.03 0.02 0.02 0.01 0.00 0.00 0.00 0.00 0.00 0.00 0.00 0.00 0.00 0.00 0.00 0.00 0.00 0.05 0.48 2.05 5.21 3.39 1.63 1.21 2.25 2.21 3.46 3.61 2.33 1.26 0.57 0.73 0.63 0.05 0.04
0.13 0.10 0.10 0.10 0.09 0.07 0.06 0.05 0.04 0.04 0.03 0.03 0.02 0.00 0.00 0.00 0.00 0.00 0.00 0.00 0.00 0.00 0.00 0.00 0.00 0.00 0.01 0.03 0.30 1.43 3.73 1.87 1.30 1.06 1.47 2.34 3.18 2.43 2.21 1.80 0.59 0.81 0.78 0.04 0.05
0.12 0.11 0.11 0.10 0.08 0.07 0.05 0.05 0.04 0.04 0.03 0.03 0.01 0.00 0.00 0.00 0.00 0.00 0.00 0.00 0.00 0.00 0.00 0.00 0.00 0.00 0.10 0.06 0.17 1.82 1.48 1.43 1.41 0.76 1.13 2.39 3.21 3.43 2.36 2.21 0.78 0.38 0.08 0.00 0.01
0.10 0.10 0.10 0.10 0.08 0.07 0.05 0.03 0.03 0.02 0.02 0.01 0.00 0.00 0.00 0.00 0.00 0.00 0.00 0.00 0.00 0.00 0.00 0.00 0.00 0.00 0.03 0.06 0.21 1.59 1.53 1.77 1.51 0.79 1.03 1.67 2.24 2.60 1.99 1.79 0.69 0.26 0.01 0.00 0.02
0.11 0.11 0.11 0.10 0.08 0.05 0.04 0.04 0.03 0.01 0.01 0.00 0.01 0.01 0.00 0.00 0.00 0.00 0.00 0.00 0.00 0.00 0.00 0.00 0.00 0.00 0.02 0.02 0.29 0.72 1.11 1.14 1.54 1.12 1.14 1.57 2.32 1.87 1.33 0.85 0.59 0.10 0.00 0.00 0.05
0.12 0.12 0.11 0.09 0.07 0.04 0.04 0.03 0.02 0.01 0.01 0.01 0.03 0.00 0.00 0.00 0.00 0.00 0.00 0.00 0.00 0.00 0.00 0.00 0.00 0.00 0.01 0.04 0.10 0.34 1.19 1.64 1.56 1.30 1.18 1.35 2.74 2.52 2.01 0.99 0.47 0.12 0.00 0.00 0.03
0.11 0.12 0.10 0.09 0.06 0.04 0.02 0.01 0.01 0.01 0.02 0.01 0.03 0.00 0.00 0.00 0.00 0.00 0.00 0.00 0.00 0.00 0.00 0.00 0.00 0.00 0.01 0.06 0.24 1.09 1.50 3.27 2.91 1.85 1.34 1.99 2.88 2.50 2.78 2.11 0.52 0.13 0.03 0.05 0.01
0.11 0.10 0.08 0.08 0.07 0.04 0.01 0.00 0.00 0.00 0.00 0.00 0.00 0.00 0.00 0.00 0.00 0.00 0.00 0.00 0.00 0.00 0.00 0.00 0.00 0.00 0.00 0.01 0.40 0.92 1.25 2.15 3.33 2.82 2.02 2.15 3.20 1.80 1.87 1.38 0.74 0.12 0.05 0.11 0.11
0.11 0.10 0.09 0.09 0.07 0.05 0.00 0.00 0.00 0.00 0.00 0.00 0.00 0.00 0.00 0.00 0.00 0.00 0.00 0.00 0.00 0.00 0.00 0.00 0.00 0.00 0.01 0.01 0.25 1.03 0.83 1.36 2.40 3.60 3.29 2.52 2.51 1.33 1.36 1.21 0.80 0.34 0.10 0.07 0.08
0.12 0.11 0.11 0.10 0.08 0.07 0.02 0.01 0.00 0.00 0.00 0.00 0.00 0.00 0.00 0.00 0.00 0.00 0.00 0.00 0.00 0.00 0.00 0.00 0.00 0.00 0.01 0.01 0.03 0.19 0.43 1.23 1.92 2.24 3.47 3.24 2.75 1.77 1.45 1.10 1.35 0.89 0.21 0.07 0.11
0.12 0.12 0.12 0.09 0.06 0.05 0.01 0.00 0.00 0.00 0.00 0.00 0.00 0.00 0.00 0.00 0.00 0.00 0.00 0.00 0.00 0.00 0.00 0.00 0.00 0.00 0.00 0.00 0.02 0.03 0.37 0.97 1.27 1.48 2.35 3.78 2.98 2.63 1.93 1.13 1.02 1.27 0.69 0.26 0.20
0.12 0.12 0.10 0.06 0.03 0.01 0.00 0.00 0.00 0.00 0.00 0.00 0.00 0.00 0.00 0.00 0.00 0.00 0.00 0.00 0.00 0.00 0.00 0.00 0.00 0.00 0.00 0.02 0.00 0.06 0.30 0.68 0.92 0.65 1.28 3.04 4.17 3.32 2.33 1.66 1.40 0.82 0.61 0.47 0.20
0.12 0.13 0.11 0.03 0.01 0.00 0.00 0.00 0.00 0.00 0.00 0.00 0.00 0.00 0.00 0.00 0.00 0.00 0.00 0.00 0.00 0.00 0.00 0.00 0.00 0.00 0.00 0.00 0.01 0.13 0.20 0.62 1.37 0.81 0.97 0.70 2.82 4.26 2.50 2.11 1.81 0.81 0.58 0.39 0.33
0.13 0.14 0.14 0.05 0.00 0.00 0.00 0.00 0.00 0.00 0.03 0.00 0.00 0.00 0.00 0.00 0.00 0.00 0.00 0.00 0.00 0.00 0.00 0.00 0.00 0.01 0.00 0.02 0.04 0.06 0.18 0.56 0.67 0.63 0.29 0.37 0.90 1.93 2.18 2.12 2.10 0.92 0.47 0.55 0.77
0.11 0.14 0.13 0.01 0.00 0.00 0.00 0.00 0.00 0.01 0.01 0.00 0.00 0.00 0.00 0.00 0.00 0.00 0.00 0.00 0.00 0.00 0.00 0.00 0.00 0.00 0.00 0.03 0.04 0.06 0.08 0.32 0.59 0.46 0.46 0.27 0.31 1.05 1.68 1.07 1.43 0.93 0.49 0.36 0.55
0.06 0.10 0.10 0.00 0.00 0.00 0.00 0.00 0.01 0.02 0.00 0.00 0.00 0.00 0.00 0.00 0.00 0.00 0.00 0.00 0.00 0.00 0.00 0.00 0.00 0.00 0.00 0.01 0.02 0.03 0.06 0.34 0.42 0.46 0.74 0.29 0.26 0.56 0.90 0.63 0.64 1.18 0.88 0.68 0.64
0.04 0.05 0.01 0.00 0.00 0.00 0.00 0.00 0.11 0.10 0.01 0.00 0.00 0.00 0.00 0.00 0.00 0.00 0.00 0.00 0.00 0.00 0.00 0.00 0.00 0.00 0.00 0.00 0.01 0.01 0.01 0.13 0.31 0.40 0.60 0.36 0.73 0.42 0.25 0.29 0.49 0.63 0.82 1.36 1.20
0.01 0.00 0.00 0.00 0.00 0.00 0.00 0.07 0.18 0.09 0.01 0.00 0.00 0.00 0.00 0.00 0.00 0.00 0.00 0.00 0.00 0.01 0.00 0.00 0.00 0.00 0.00 0.00 0.00 0.00 0.01 0.04 0.13 0.18 0.37 0.43 0.76 0.47 0.21 0.26 0.26 0.51 0.92 1.19 1.16
0.00 0.00 0.00 0.00 0.00 0.00 0.01 0.03 0.01 0.02 0.02 0.00 0.00 0.00 0.00 0.00 0.00 0.00 0.01 0.01 0.00 0.01 0.00 0.00 0.00 0.00 0.00 0.00 0.01 0.00 0.01 0.03 0.07 0.23 0.24 0.58 1.10 1.22 0.55 1.14 0.66 0.43 0.61 0.67 1.16
0.00 0.00 0.00 0.00 0.00 0.01 0.22 0.02 0.00 0.00 0.00 0.00 0.00 0.00 0.00 0.01 0.01 0.03 0.05 0.02 0.01 0.00 0.01 0.01 0.00 0.01 0.00 0.02 0.03 0.01 0.00 0.01 0.01 0.11 0.32 0.58 0.94 1.09 0.90 1.48 1.35 0.80 0.48 0.53 0.59
0.00 0.00 0.00 0.00 0.00 0.01 0.08 0.00 0.00 0.00 0.00 0.00 0.00 0.00 0.01 0.02 0.03 0.03 0.05 0.06 0.01 0.00 0.03 0.02 0.01 0.01 0.01 0.03 0.09 0.12 0.07 0.06 0.02 0.16 0.21 0.30 0.71 0.81 0.93 0.98 1.22 1.87 1.11 0.88 0.70
0.00 0.01 0.01 0.00 0.02 0.01 0.00 0.00 0.00 0.01 0.01 0.03 0.03 0.02 0.01 0.02 0.08 0.07 0.10 0.09 0.07 0.04 0.06 0.09 0.06 0.06 0.09 0.08 0.03 0.00 0.02 0.17 0.14 0.14 0.07 0.13 0.27 0.47 0.66 1.21 1.48 2.08 1.93 1.37 1.78
0.03 0.06 0.03 0.00 0.00 0.00 0.02 0.01 0.00 0.01 0.03 0.03 0.07 0.02 0.00 0.01 0.03 0.14 0.10 0.07 0.06 0.06 0.11 0.21 0.06 0.02 0.19 0.23 0.09 0.02 0.02 0.01 0.06 0.09 0.03 0.06 0.15 0.50 0.76 1.51 0.81 1.40 2.44 2.00 1.97
0.07 0.16 0.36 0.03 0.00 0.02 0.05 0.07 0.06 0.06 0.05 0.07 0.30 0.25 0.11 0.04 0.03 0.13 0.08 0.03 0.03 0.08 0.15 0.12 0.02 0.00 0.03 0.01 0.01 0.04 0.04 0.03 0.01 0.01 0.06 0.37 0.15 0.71 0.48 0.41 0.77 0.62 0.58 0.65 0.87
0.16 0.31 0.52 0.11 0.08 0.08 0.06 0.09 0.14 0.07 0.03 0.07 0.24 0.24 0.21 0.24 0.13 0.13 0.08 0.08 0.16 0.18 0.21 0.11 0.04 0.00 0.00 0.01 0.00 0.01 0.01 0.01 0.05 0.13 0.07 0.26 0.50 0.32 0.51 0.56 0.49 0.91 1.35 1.41 1.10
0.25 0.35 0.47 0.21 0.16 0.39 0.17 0.17 0.15 0.43 0.29 0.27 0.33 0.26 0.17 0.20 0.09 0.09 0.08 0.06 0.08 0.20 0.27 0.17 0.16 0.15 0.06 0.06 0.02 0.06 0.01 0.01 0.01 0.04 0.05 0.13 0.64 0.61 0.63 0.70 0.84 0.65 1.02 1.80 1.67